Regional Weather Roundup
Issued by NWS

Home | Current Version | Previous Version | Text Only | Print | Product List | Glossary Off
Versions: 1 2 3 4 5 6 7 8 9 10 11 12 13 14 15 16 17 18 19 20 21 22 23 24 25 26 27

000
ASUS45 KSLC 152210
RWRUT

UTAH REGIONAL WEATHER ROUNDUP
NATIONAL WEATHER SERVICE SALT LAKE CITY UT
400 PM MDT TUE APR 15 2014

UTZ001>011-023>025-152300-

NORTHERN UTAH

CITY           SKY/WX    TMP DP  RH WIND       PRES   REMARKS
HILL AFB       PTSUNNY   66   1   7 W13G23    29.82F
LOGAN          MOSUNNY   62  18  18 SW15G25   29.81F
OGDEN          PTSUNNY   67  11  11 W14G21    29.81F
PROVO AIRPORT  MOSUNNY   68  23  18 SW7       29.83F
SALT LAKE CITY PTSUNNY   69  14  12 W10G16    29.81F
VERNAL         MOSUNNY   58  20  22 VRB5      29.85F
WENDOVER       PTSUNNY   70  16  12 NW26G39   29.83S
HEBER CITY     MOSUNNY   63  18  17 S12G21    29.85F
WEST JORDAN    SUNNY     68  27  21 W13G18    29.83F

$$

UTZ012>022-026-027-152300-

SOUTHERN UTAH

CITY           SKY/WX    TMP DP  RH WIND       PRES   REMARKS
BRYCE CANYON   PTSUNNY   61  16  17 W15G25    30.02F
CEDAR CITY     PTSUNNY   69   9   9 S15       29.93F
MILFORD        SUNNY     70   9   9 S9        29.88F
MOAB/CYNLANDS  SUNNY     63  15  15 N6        29.90F
PRICE          SUNNY     57  12  17 S9        29.92F
ST GEORGE      PTCLDY    73  18  12 W9        29.89F
KANAB            N/A     73   3   6 SW13G20   29.95F

$$

REGIONAL REPORTS     COLORADO/ARIZONA

CITY           SKY/WX    TMP DP  RH WIND       PRES   REMARKS
CRAIG, CO      SUNNY     57  21  24 SW18G28   29.87F
GRAND JUNCTION PTSUNNY   57  22  25 NW7       29.92F
RIFLE          PTSUNNY   58  17  20 W20       29.91F
MONTROSE       CLOUDY    61  18  18 VRB6      29.95F
CORTEZ         SUNNY     61   5  10 VRB7      29.99F
PAGE, AZ       PTSUNNY   68  10  10 NE7       29.91F
GRAND CANYON   MOSUNNY   65   1   8 SW15G25   30.03F
KINGMAN        PTSUNNY   75 -11   3 SW16      29.92F
FLAGSTAFF      PTSUNNY   63  -7   6 SW13G25   30.06F

$$

REGIONAL REPORTS    NEVADA/IDAHO/WYOMING

CITY           SKY/WX    TMP DP  RH WIND       PRES   REMARKS
LAS VEGAS, NV  PTSUNNY   79   9   7 CALM      29.81F
ELY            MOSUNNY   66  10  11 W17G33    29.94F
ELKO           PTSUNNY   66  16  14 W32G40    29.92F
POCATELLO, ID  SUNNY     58  22  24 W37G48    29.81F
BURLEY         LGT RAIN  56  27  32 W23G40    29.86F
EVANSTON, WY   PTSUNNY   55  12  18 W31G41    29.87F
ROCK SPRINGS   CLOUDY    58   8  13 W32G43    29.78

$$



USA.gov is the U.S. government's official web portal to all federal, state and local government web resources and services.